Location: Gradaro
(45.0833°N, 10.8833°E)
Time: 02:08:39
(UTC+00:00)

Daily predictions for brighter satellites

Satellite Brightness Start Highest point End
(mag) Time Altitude Azimuth Time Altitude Azimuth Time Altitude Azimuth
CENTAUR R/B 4.1 02:14:20 43° E 02:14:20 43° E 02:20:39 10° ESE
BREEZE-M DEB (TANK) 4.5 02:45:10 69° ESE 02:45:10 69° ESE 03:05:47 10° ENE
Lacrosse 5 4.2 02:52:48 20° E 02:52:48 20° E 02:54:58 10° ENE
Cosmos 2263 Rocket 3.8 03:01:26 30° NE 03:01:26 30° NE 03:04:24 10° NE
SJ 16-02 3.9 03:08:47 18° ENE 03:08:47 18° ENE 03:10:20 10° NE
CZ-4C R/B 3.8 03:25:49 21° SSE 03:27:52 28° ESE 03:32:34 10° NE
BREEZE-M DEB (TANK) 4.4 03:30:34 66° NNW 03:31:18 71° N 03:35:30 10° E
ATLAS 3B R/B 3.6 03:30:35 33° N 03:32:57 44° NE 03:39:44 10° ESE
Cosmos 1943 3.7 03:36:00 53° SSE 03:36:00 53° SSE 03:40:16 10° SSE
Lacrosse 4 Rocket 3.1 03:38:11 32° ESE 03:38:11 32° ESE 03:40:41 10° SE
ALOS 3.0 03:49:58 10° NNE 03:53:16 45° NNE 03:53:16 45° NNE
Cosmos 923 Rocket 4.3 03:53:37 51° N 03:54:48 67° ENE 04:00:05 10° SSE
METEOR-M 4.3 03:54:04 10° NNE 03:59:24 69° ESE 04:04:43 10° S
NOSS 3-2 (C) 4.1 04:00:07 51° W 04:01:09 53° WSW 04:09:25 10° SSE
NOSS 3-4 (A) 3.2 04:00:50 67° WSW 04:01:33 77° NW 04:07:53 10° NE
NOSS 3-4 (C) 3.2 04:00:54 67° WSW 04:01:41 77° NW 04:08:02 10° NE
CENTAUR R/B 3.3 04:01:35 48° W 04:03:09 54° WSW 04:11:40 10° SSE
Milstar 3 Cent rocket 4.4 04:00:16 18° SSW 04:04:13 27° SSE 04:14:03 10° ESE
ARGOS Delta rocket 4.2 04:00:37 10° N 04:04:43 56° N 04:04:43 56° N
Cosmos 158 Rocket 3.7 04:10:38 61° NNW 04:11:32 89° ENE 04:16:31 10° SSE
Cosmos 1515 Rocket 4.4 04:09:36 16° N 04:13:04 52° ENE 04:17:25 10° SSE
SL-4 R/B 3.3 04:15:03 29° NNE 04:15:03 29° NNE 04:17:34 10° ENE
Cosmos 1151 Rocket 3.3 04:17:01 54° SSW 04:17:01 54° SSW 04:20:25 10° S
SKYMED 2 3.9 04:12:36 10° SSE 04:16:54 65° ENE 04:19:24 24° N
Cosmos 1844 Rocket 3.7 04:11:59 10° S 04:17:20 47° ESE 04:22:46 10° NE
Cosmos 1782 3.0 04:16:34 47° NNE 04:17:35 70° E 04:21:37 10° SSE
ATLAS 2AS CENTAUR R/B 2.9 04:15:30 21° SW 04:21:11 77° NW 04:29:05 10° NE
ERS-2 3.8 04:17:41 10° S 04:19:17 24° S 04:19:17 24° S
Cosmos 1680 Rocket 3.5 04:20:02 30° NNW 04:22:48 87° ENE 04:28:06 10° SSE
SJ-12 4.1 04:19:37 10° NNE 04:23:40 72° E 04:27:43 10° S
FALCON 9 DEB 3.9 04:24:39 43° NE 04:24:39 43° NE 04:26:57 10° ENE
ATLAS 5 CENTAUR R/B 3.8 04:31:19 16° N 04:31:19 16° N 04:32:03 10° NNE
Atlas Centaur 2 4.2 04:26:41 13° SW 04:30:13 19° S 04:34:06 10° SE
RESURS DK-1 2.6 04:27:24 10° SSW 04:31:32 70° ESE 04:35:41 10° NNE
CRYOSAT 2 4.2 04:27:09 10° S 04:32:00 77° W 04:36:54 10° N
ATLAS CENTAUR R/B 1.7 04:32:06 37° N 04:33:17 53° NE 04:37:08 10° SE
Lacrosse 5 1.8 04:32:03 45° W 04:33:25 65° NW 04:38:29 10° NE
ADEOS 3.6 04:29:19 10° N 04:34:25 55° WNW 04:39:30 10° SSW
Cosmos 1500 Rocket 4.2 04:31:46 10° S 04:35:58 54° E 04:40:12 10° NNE
Cosmos 1328 Rocket 3.6 04:35:40 50° WNW 04:36:08 52° W 04:40:26 10° S
Meteor PRIRODA 3.9 04:32:53 10° NNE 04:36:38 68° ESE 04:40:20 10° S
Meteor 2-6 Rocket 4.5 04:32:28 10° N 04:37:50 65° ENE 04:43:14 10° SSE
H-2A R/B 3.9 04:36:45 10° NNE 04:40:31 46° E 04:44:15 10° S
Cosmos 2112 Rocket 3.9 04:38:53 21° NNW 04:42:33 75° WSW 04:47:52 10° SSE
Cosmos 2263 Rocket 3.0 04:43:11 29° NW 04:43:11 29° NW 04:48:03 10° N
Gbstr 26 Del rocket 2.5 04:43:34 53° WNW 04:44:22 79° SSW 04:48:18 10° SE
Meteor 1-4 Rocket 4.3 04:46:48 18° SSW 04:46:48 18° SSW 04:47:53 10° SSW
SJ 16-02 2.1 04:45:52 33° NW 04:45:52 33° NW 04:49:16 10° N
Nadezhda 3 Rocket 4.4 04:44:01 10° N 04:50:18 64° E 04:56:28 10° SSE
Cosmos 1898 Rocket 3.4 04:47:17 10° SSW 04:52:36 73° WNW 04:57:58 10° NNE
CZ-2C R/B 4.4 04:50:08 10° SE 04:54:52 31° ENE 04:59:32 10° N
FALCON 9 DEB 3.1 04:56:35 46° WNW 04:57:02 51° NNW 05:00:11 10° NE
FALCON 9 DEB 3.2 04:56:45 45° NW 04:57:09 48° NNW 05:00:18 10° NE
FENGYUN 3A 4.3 04:54:24 10° N 04:59:08 32° WNW 05:03:50 10° SW
Envisat 3.8 04:54:46 10° NNE 04:59:45 53° E 05:04:43 10° S
Cosmos 1743 Rocket 3.5 04:55:26 10° S 04:59:53 81° W 05:04:23 10° N
Cosmos 1408 Rocket 3.9 04:57:45 10° SSW 05:01:58 40° WNW 05:06:11 10° N
H-2A R/B 3.6 04:59:29 10° NNE 05:03:09 42° E 05:06:47 10° S
Cosmos 2082 Rocket 4.5 05:00:43 10° N 05:04:35 18° NE 05:08:27 10° E
NOSS 7 (H) 4.0 05:01:45 13° SW 05:04:45 71° NW 05:07:41 10° NE
Cosmos 2181 Rocket 4.4 04:59:10 10° NNW 05:04:46 36° W 05:10:17 10° SSW
COSMO-SKYMED 1 3.0 05:00:57 10° SSW 05:05:00 39° W 05:07:59 17° NW
USA 307 4.3 05:05:08 18° NNW 05:07:19 27° N 05:11:02 10° ENE
Cosmos 1937 Rocket 3.4 05:04:33 10° SSW 05:09:41 71° WNW 05:14:53 10° NNE
USA 308 4.3 05:11:14 17° NW 05:13:43 28° NNE 05:17:28 10° ENE
Meteor 2-3 Rocket 4.5 05:09:16 10° SW 05:14:14 30° WNW 05:19:16 10° N
Lacrosse 4 Rocket 3.2 05:14:32 16° WSW 05:14:35 16° WSW 05:17:16 10° SW
Cosmos 1833 Rocket 4.2 05:10:17 10° N 05:15:19 32° NE 05:20:18 10° ESE
MOS 1 Rocket 3.3 05:10:32 10° S 05:15:19 79° W 05:20:28 10° NNW
Cosmos 2154 Rocket 4.0 05:09:27 10° S 05:15:40 84° W 05:21:59 10° N
CZ-4C R/B 2.3 05:11:05 10° WSW 05:15:57 49° NW 05:21:49 10° NNE
CZ-4B R/B 3.5 05:13:43 10° N 05:17:55 39° WNW 05:22:00 10° SW
Cosmos 1689 Rocket 3.1 05:15:41 10° SSW 05:18:05 24° W 05:18:12 24° W
Cosmos 1805 Rocket 3.7 05:14:38 10° S 05:19:03 81° E 05:23:33 10° N
Meteor 1-27 Rocket 4.1 05:13:37 10° N 05:19:24 73° ENE 05:25:16 10° SSE
FALCON 9 DEB 3.6 05:18:32 24° WNW 05:19:57 37° NNW 05:22:59 10° NE
Meteor 1-10 Rocket 4.2 05:15:52 10° NNW 05:21:24 69° W 05:26:58 10° S
Aureole 2 Rocket 1.5 05:21:07 10° SSW 05:23:37 61° WNW 05:26:10 10° NNE
ATLAS 3B R/B 3.0 05:17:52 13° NW 05:23:48 50° WSW 05:30:43 10° S
COSMOS 2406 4.2 05:20:01 10° NNW 05:25:32 46° ENE 05:31:03 10° SE
Cosmos 1862 3.6 05:22:47 10° SSW 05:26:41 46° WNW 05:30:37 10° N
Genesis I 3.8 05:25:03 10° WSW 05:28:35 35° NW 05:32:10 10° NNE
YAOGAN 6 2.4 05:25:15 10° N 05:28:46 77° WNW 05:32:13 10° SSW
ALOS 3.9 05:29:03 10° NNW 05:31:28 14° WNW 05:31:45 14° WNW
Cosmos 2341 Rocket 4.3 05:25:31 10° S 05:31:40 71° E 05:37:53 10° NNE
Cosmos 2278 Rocket 4.0 05:27:42 10° S 05:32:49 37° ESE 05:37:58 10° NE
Cosmos 2327 Rocket 4.5 05:29:11 10° SSW 05:35:10 58° WNW 05:41:10 10° N
Cosmos 2074 Rocket 4.4 05:30:59 10° SW 05:36:42 38° WNW 05:42:29 10° N
PSLV R/B 3.9 05:33:48 10° N 05:37:32 48° WNW 05:41:10 10° SSW
SL-24 DEB 4.3 05:37:51 10° S 05:42:34 61° W 05:47:19 10° NNW
Cosmos 405 Rocket 3.3 05:39:17 10° SW 05:42:37 31° WNW 05:46:01 10° N
BREEZE M DEB (TANK) 2.6 05:35:28 10° WSW 05:42:37 79° SSE 05:45:15 10° ENE
USA 305 4.0 05:38:55 11° NW 05:42:45 34° NNE 05:46:41 10° E
NOAA 12 4.3 05:41:21 10° NNE 05:46:40 79° ESE 05:51:54 10° S
Cosmos 1812 3.7 05:44:22 10° NNW 05:47:40 27° W 05:50:55 10° SSW
Cosmos 1295 Rocket 4.5 05:42:08 10° SSW 05:48:06 58° WNW 05:54:08 10° N
Cosmos 2228 Rocket 3.9 05:46:18 10° NNW 05:50:11 31° W 05:54:02 10° SSW
USA 306 3.9 05:47:14 10° NW 05:51:14 36° NNE 05:55:14 10° E
Cosmos 1633 Rocket 3.4 05:48:14 10° S 05:52:38 72° E 05:57:03 10° NNE
SL-4 R/B 2.8 05:50:47 10° NW 05:54:21 34° NNE 05:57:41 10° E
USA 234 3.4 05:51:15 10° NE 05:57:50 90° SE 06:04:24 10° SW
Cosmos 1356 3.3 05:54:49 10° SSW 05:58:12 64° WNW 06:01:37 10° N
Cosmos 1844 Rocket 3.4 05:56:28 10° WSW 06:01:26 31° NW 06:06:26 10° N
